Location: ????????
(38.4362°N, 22.8767°E)
Time: 04:29:08
(UTC+00:00)

FENGYUN 1C DEB - Pass Details

Date: 13 October 2025
Orbit: 841 x 1273 km, 99.2° (Epoch: 16 November)

Event Time Altitude Azimuth Distance (km) Brightness Sun altitude
Rises 01:45:40 0° 35° (NE) 3,402 ? -33.7°
Reaches altitude 10° 01:49:13 10° 60° (ENE) 2,468 ? -33.0°
Maximum altitude 01:52:05 14° 92° (E) 2,182 ? -32.5°
Drops below altitude 10° 01:55:00 10° 125° (SE) 2,512 ? -31.9°
Sets 01:58:38 0° 149° (SSE) 3,503 ? -31.3°
